User: anonymous   Login
Location: Ay?beleni
(36.6500°N, 30.3000°E)
Time: 00:37:39
(UTC+00:00)
Language:

Meteor 2-12 Rocket - Orbit

View from above orbital plane
View from above orbital plane
View from above satellite
View from above satellite

Ground track
Ground track

The orbit data is extracted from the following two-line orbital elements,

1 15517U 85013B   20188.48246839 +.00000036 +00000-0 +18998-4 0  9997
2 15517 082.5365 273.3579 0013667 303.6452 056.3404 13.84892075789601
Epoch (UTC): 06 July 2020 11:34:45
Eccentricity: 0.0013667
inclination: 82.5365°
perigee height: 936 km
apogee height: 956 km
right ascension of ascending node: 273.3579°
argument of perigee: 303.6452°
revolutions per day: 13.84892075
mean anomaly at epoch: 56.3404°
orbit number at epoch: 78960

The dashed part of the orbit path shows where the satellite is in the earth's shadow,  

DLR